Regional Weather Roundup
Issued by NWS

Home | Current Version | Previous Version | Graphics & Text | Print | Product List | Glossary On
Versions: 1 2 3 4 5 6 7 8 9 10 11 12 13 14 15 16 17 18 19 20 21 22 23 24 25 26 27 28 29 30 31 32 33 34 35 36 37 38 39 40 41 42 43 44 45 46 47 48 49 50
000
ASUS43 KDTX 261801
RWRMI
MICHIGAN HOURLY REGIONAL WEATHER ROUNDUP
NATIONAL WEATHER SERVICE DETROIT/PONTIAC MI
200 PM EDT WED APR 26 2017

NOTE: "FAIR" INDICATES FEW OR NO CLOUDS BELOW 12,000 FEET WITH NO
SIGNIFICANT WEATHER AND/OR OBSTRUCTION TO VISIBILITY.

MIZ047>049-052>055-059>063-066>070-074>076-081>083-261900-
SOUTHEAST LOWER MICHIGAN

CITY           SKY/WX    TMP DP  RH WIND       PRES   REMARKS
ADRIAN         SUNNY     78  55  44 S21G32    29.56F
6HR MIN TEMP:  59; 6HR MAX TEMP:  79;

ALMA           MOSUNNY   76  58  52 S16G24    29.51S
ANN ARBOR      SUNNY     76  61  59 E20G25    29.56F
BAD AXE        MOSUNNY   70  58  64 SE14G21   29.58F
6HR MIN TEMP:  54; 6HR MAX TEMP:  71;

CARO           SUNNY     73  58  59 SE22G30   29.55F
DETROIT CITY   SUNNY     73  59  61 SE15      29.60F
6HR MIN TEMP:  55; 6HR MAX TEMP:  73;

DETROIT        MOSUNNY   74  58  57 SE15G25   29.60F
6HR MIN TEMP:  57; 6HR MAX TEMP:  74;

FLINT          SUNNY     75  58  55 S23G29    29.54F
6HR MIN TEMP:  56; 6HR MAX TEMP:  76;

GROSSE ILE     SUNNY     71  59  66 SE10G16   29.59F
6HR MIN TEMP:  58; 6HR MAX TEMP:  71;

HILLSDALE      SUNNY     77  54  44 S20G28    29.54F
HOWELL         MOSUNNY   76  55  48 SE22G32   29.55S
6HR MIN TEMP:  59; 6HR MAX TEMP:  76;


CITY           SKY/WX    TMP DP  RH WIND       PRES   REMARKS
JACKSON        SUNNY     78  56  46 S26G37    29.53F
6HR MIN TEMP:  59; 6HR MAX TEMP:  79;

LAMBERTVILLE   SUNNY     78  58  48 S13G20    29.57F
6HR MIN TEMP:  59; 6HR MAX TEMP:  78;

LANSING        CLOUDY    79  56  45 S24G38    29.51F
6HR MIN TEMP:  61; 6HR MAX TEMP:  79;

LAPEER         FAIR      73  56  56 SE18G29   29.57F
6HR MIN TEMP:  55; 6HR MAX TEMP:  73;

MASON          MOSUNNY   78  57  49 S12G28    29.53F
MONROE         SUNNY     74  59  59 E9G17     29.59F
6HR MIN TEMP:  57; 6HR MAX TEMP:  74;

MT. CLEMENS    PTSUNNY   66  58  76 SE21      29.60F
6HR MIN TEMP:  54; 6HR MAX TEMP:  66;

PONTIAC        PTSUNNY   74  57  55 S16G26    29.56F
6HR MIN TEMP:  54; 6HR MAX TEMP:  74;

PORT HOPE        N/A     63  54  72 SE24G33   29.57F
6HR MIN TEMP:  53; 6HR MAX TEMP:  64;

PORT HURON     CLOUDY    72  55  56 S15G25    29.62F
TRI CITIES     SUNNY     76  58  53 S18G28    29.52F
6HR MIN TEMP:  59; 6HR MAX TEMP:  76; 6HR PCP: TRACE;

MIDLAND        FAIR      77  55  47 SE16G26   29.51F
6HR MIN TEMP:  62; 6HR MAX TEMP:  77;

TROY           SUNNY     75  55  50 S17G26    29.60F
SAGINAW HB     SUNNY     77  52  41 SE21G28   29.52F
$$
MIZ043>046-050>051-056>058-064>065-071>073-077>080-261900-
SOUTHWEST LOWER MICHIGAN

CITY           SKY/WX    TMP DP  RH WIND       PRES   REMARKS
BATTLE CREEK   MOSUNNY   78  58  49 S17G33    29.50F
6HR MIN TEMP:  61; 6HR MAX TEMP:  78;

BENTON HARBOR  PTSUNNY   79  58  48 S16G26    29.45S
6HR MIN TEMP:  65; 6HR MAX TEMP:  80;

BIG RAPIDS     CLOUDY    74  52  45 SE22G30   29.46S
6HR MIN TEMP:  59; 6HR MAX TEMP:  75;

COLDWATER      SUNNY     77  57  48 S18G26    29.52F
6HR MIN TEMP:  61; 6HR MAX TEMP:  77;

FREMONT        CLOUDY    76  52  43 S16G24    29.43F
HOLLAND        PTSUNNY   79  60  52 S18G25    29.45S
6HR MIN TEMP:  63; 6HR MAX TEMP:  79;

GRAND RAPIDS   PTSUNNY   79  58  48 S18G25    29.47F
6HR MIN TEMP:  61; 6HR MAX TEMP:  79; 6HR PCP: TRACE;

IONIA          FAIR      78  53  41 S25G36    29.48F
6HR MIN TEMP:  60; 6HR MAX TEMP:  78;

KALAMAZOO      MOSUNNY   78  57  48 S21G33    29.49S
6HR MIN TEMP:  62; 6HR MAX TEMP:  79; 6HR PCP: TRACE;

LUDINGTON      HVY RAIN  61  58  89 SW23G32   29.42R
6HR MIN TEMP:  60; 6HR MAX TEMP:  73; 6HR PCP:  0.05;

MARSHALL       MOSUNNY   78  56  47 S17G29    29.52S
6HR MIN TEMP:  61; 6HR MAX TEMP:  78;

MOUNT PLEASANT MOSUNNY   76  55  48 S17G25    29.49F
6HR MIN TEMP:  59; 6HR MAX TEMP:  76;

MUSKEGON       PTSUNNY   78  57  48 S16G24    29.42F
6HR MIN TEMP:  64; 6HR MAX TEMP:  80;

SOUTH HAVEN    MOSUNNY   80  58  47 S16G24    29.45S
$$
MIZ016>042-261900-
NORTHERN LOWER MICHIGAN

CITY           SKY/WX    TMP DP  RH WIND       PRES   REMARKS
ALPENA         SUNNY     61  51  70 E14       29.56F
6HR MIN TEMP:  44; 6HR MAX TEMP:  64;

BEAVER ISLAND  CLOUDY    52  46  80 E9        29.44F
BELLAIRE       CLOUDY    76  53  43 SE18G26   29.42F
6HR MIN TEMP:  61; 6HR MAX TEMP:  76;

CADILLAC       CLOUDY    72  56  56 SE16G22   29.45F
CHARLEVOIX     CLOUDY    74  54  49 SE15G23   29.44F
6HR MIN TEMP:  61; 6HR MAX TEMP:  74;

FRANKFORT      CLOUDY    64  52  64 W7        29.40S
GAYLORD        MOSUNNY   75  49  39 S23G36    29.48F
6HR MIN TEMP:  57; 6HR MAX TEMP:  75;

GRAYLING       MOSUNNY   74  55  50 SE24G30   29.48F
6HR MIN TEMP:  57; 6HR MAX TEMP:  75;

HARBOR SPRINGS CLOUDY    75  53  46 S10G21    29.44F
HOUGHTON LAKE  MOSUNNY   74  55  51 S20G30    29.48F
6HR MIN TEMP:  57; 6HR MAX TEMP:  74;

MANISTEE       CLOUDY    74  54  49 S9G24     29.38F
OSCODA         CLOUDY    62  51  66 SE16G23   29.57F
6HR MIN TEMP:  50; 6HR MAX TEMP:  65;

PELLSTON       CLOUDY    75  54  47 SE13G25   29.45F
6HR MIN TEMP:  50; 6HR MAX TEMP:  75;

ROGERS CITY    PTSUNNY   67  55  64 SE20G29   29.55F
TRAVERSE CITY  CLOUDY    77  54  44 SE15G25   29.39F
6HR MIN TEMP:  62; 6HR MAX TEMP:  78;

$$
MIZ007>008-015-261900-
EASTERN UPPER MICHIGAN

CITY           SKY/WX    TMP DP  RH WIND       PRES   REMARKS
KINROSS        CLOUDY    56  50  80 E23G32    29.52F
6HR MIN TEMP:  46; 6HR MAX TEMP:  57; 6HR PCP: TRACE;

MACKINAC ISLAN FOG       42  42 100 E21G32    29.49F VSB 3/4
NEWBERRY       CLOUDY    59  55  89 E14       29.46F
6HR MIN TEMP:  46; 6HR MAX TEMP:  59;

S. S. MARIE    CLOUDY    58  51  78 SE16G31   29.53F
6HR MIN TEMP:  51; 6HR MAX TEMP:  58; 6HR PCP:  0.08;

MUNISING         N/A     48  45  89 NE7       29.41F
6HR MIN TEMP:  39; 6HR MAX TEMP:  62; 6HR PCP:  0.12;

$$
MIZ004>006-011>014-085-261900-
CENTRAL UPPER MICHIGAN

CITY           SKY/WX    TMP DP  RH WIND       PRES   REMARKS
MANISTIQUE     CLOUDY    53  51  94 E12       29.43F
6HR MIN TEMP:  49; 6HR MAX TEMP:  61;

ESCANABA       CLOUDY    53  49  86 E8        29.42F
6HR MIN TEMP:  49; 6HR MAX TEMP:  56; 6HR PCP: TRACE;

MENOMINEE      LGT RAIN  55  51  86 S12       29.39F
6HR MIN TEMP:  47; 6HR MAX TEMP:  56; 6HR PCP: TRACE;

SAWYER-GWINN   FOG       41  39  93 NE5       29.43F VSB 1/4
$$
MIZ001>003-009>011-084-261900-
WESTERN UPPER MICHIGAN

CITY           SKY/WX    TMP DP  RH WIND       PRES   REMARKS
IRON MOUNTAIN  CLOUDY    55  51  86 E6        29.37F FOG
6HR MIN TEMP:  49; 6HR MAX TEMP:  55; 6HR PCP: TRACE;

HOUGHTON       RAIN      36  33  89 E15       29.47F FOG     WCI  27
6HR MIN TEMP:  35; 6HR MAX TEMP:  36; 6HR PCP:  0.44;

COPPER HARBOR    N/A     36  35  96 E8G17     29.53F WCI  30
6HR MIN TEMP:  33; 6HR MAX TEMP:  36; 6HR PCP:  0.67;

IRONWOOD       LGT SNOW  33  32  96 N7        29.48F FOG     WCI  27
6HR MIN TEMP:  32; 6HR MAX TEMP:  33; 6HR PCP:  0.56;

$$

ABBREVIATIONS USED IN REMARKS
   TC - TEMPERATURE IN CELSIUS
  WCI - WIND CHILL INDEX
   HX - HEAT INDEX
  VSB - VISIBILITY




USA.gov is the U.S. government's official web portal to all federal, state and local government web resources and services.